ATS 6

导读 | 豆包AI

ATS 6是美国航空航天局于1974年5月30日发射的应用技术卫星,作为ATS系列中功能强大的通信试验卫星,它承载超20项科技试验任务。它首次实现为低成本地面站传输彩色电视信号,在偏远地区开展卫生教育通信试验,推动了卫星远程教育、通信技术的发展,为后续商用通信卫星发展积累了关键技术经验。

基本信息
目录编号:
7318
目录名称:
ATS 6
国际标识:
1974-039A
轨道中心:
EARTH
卫星名称:
ATS 6
卫星全名:
--
卫星状态:
在轨 (已飞行18963 天)
发射日期:
1974-05-30 UTC
国别 :
美国 (US)
星等 :
--
轨道信息
数据来源 国际轨道数据 AOE轨道数据
星历时间 2026-04-30T20:13:42+0800
8小时前
查看轨道信息
2026-05-01T00:00:00+0800
4小时前
查看轨道信息
半长轴 41692.936km 41693.073km
偏心率 0.0029077 0.0028876
轨道倾角 2.061° 2.061°
近地点辐角 346.361° 346.544°
升交点赤经 249.421° 249.416°
平近点角 280.422° 337.934°
近地点 35193.568km 35194.543km
远地点 35436.03km 35435.329km
周期 1412.061分钟 1412.068分钟
每日圈数 1.019786 1.019781
详细信息
使用方式:
暂无
2D轨道图
3D轨道图
轨道高度分析图
轨道倾角分析图
轨道综合分析图
查看轨道综合分析图